Change the Weather History Date:

Friday, October 5, 2012

  Actual Average Record
Temperature  
Mean Temperature 73 °F -  
Max Temperature 88 °F 85 °F 96 °F (2006)
Min Temperature 59 °F 58 °F 37 °F (2010)
Cooling Degree Days 8    
Growing Degree Days 23 (Base 50)    
Moisture  
Dew Point 64 °F    
Average Humidity 85    
Maximum Humidity 100    
Minimum Humidity 45    
Precipitation  
Precipitation 0.00 in - - ()
Sea Level Pressure  
Sea Level Pressure 30.08 in    
Wind  
Wind Speed 1 mph (SSW)    
Max Wind Speed 9 mph    
Max Gust Speed -    
Visibility 7 miles    
Events      
Averages and records for this station are not official NWS values.
T = Trace of Precipitation, MM = Missing Value Source: NWS Daily Summary

Daily Weather History Graph

Daily Weather History Graph

Search for Another Location

Airport or City:

Trip Planner

Search our weather history database for the weather conditions in past years. The results will help you decide how hot, cold, wet, or windy it might be!

Date:

Astronomy

Oct. 05, 2012 Rise Set
Actual Time 7:09 AM CDT 6:51 PM CDT
Civil Twilight 6:44 AM CDT 7:15 PM CDT
Nautical Twilight 6:16 AM CDT 7:44 PM CDT
Astronomical Twilight 5:48 AM CDT 8:12 PM CDT
Moon 10:32 PM CDT (10/5) 12:00 PM CDT (10/5)
Length of Visible Light 12h 31m
Length of Day
11h 42m
Waning Gibbous, 74% of the Moon is Illuminated
Oct 5
Waning Gibbous
Oct 8
Last Quarter
Oct 15
New
Oct 21
First Quarter
Oct 29
Full

Hourly Weather History & Observations

Time (CDT) Temp. Heat Index Dew Point Humidity Pressure Visibility Wind Dir Wind Speed Gust Speed Precip Events Conditions
12:15 AM 63.5 °F - 63.1 °F 99% 30.14 in 7.0 mi Calm Calm - N/A   Clear
12:35 AM 63.5 °F - 63.1 °F 99% 30.14 in 7.0 mi Calm Calm - N/A   Clear
12:55 AM 63.0 °F - 62.8 °F 99% 30.14 in 5.0 mi Calm Calm - N/A   Clear
1:15 AM 62.6 °F - 62.6 °F 100% 30.14 in 7.0 mi Calm Calm - N/A   Clear
1:35 AM 62.2 °F - 62.2 °F 100% 30.14 in 5.0 mi Calm Calm - N/A   Clear
1:55 AM 62.2 °F - 62.2 °F 100% 30.14 in 7.0 mi Calm Calm - N/A   Clear
2:15 AM 62.2 °F - 62.1 °F 99% 30.14 in 7.0 mi Calm Calm - N/A   Clear
2:35 AM 61.9 °F - 61.7 °F 99% 30.14 in 7.0 mi Calm Calm - N/A   Clear
2:55 AM 61.5 °F - 61.3 °F 99% 30.14 in 3.0 mi Calm Calm - N/A   Clear
3:15 AM 61.2 °F - 61.2 °F 100% 30.14 in 3.0 mi Calm Calm - N/A   Clear
3:35 AM 61.0 °F - 61.0 °F 100% 30.13 in 4.0 mi Calm Calm - N/A   Clear
3:55 AM 60.6 °F - 60.4 °F 99% 30.13 in 7.0 mi Calm Calm - N/A   Clear
4:15 AM 60.8 °F - 60.4 °F 99% 30.13 in 5.0 mi Calm Calm - N/A   Clear
4:35 AM 60.3 °F - 60.3 °F 100% 30.13 in 4.0 mi Calm Calm - N/A   Clear
4:55 AM 60.1 °F - 60.1 °F 100% 30.13 in 3.0 mi Calm Calm - N/A   Clear
5:15 AM 60.1 °F - 60.1 °F 100% 30.13 in 5.0 mi Calm Calm - N/A   Clear
5:35 AM 60.1 °F - 60.1 °F 100% 30.13 in 4.0 mi Calm Calm - N/A   Clear
5:55 AM 59.9 °F - 59.9 °F 100% 30.13 in 4.0 mi Calm Calm - N/A   Clear
6:15 AM 59.9 °F - 59.9 °F 100% 30.13 in 4.0 mi Calm Calm - N/A   Clear
6:35 AM 59.4 °F - 59.4 °F 100% 30.13 in 2.5 mi Calm Calm - N/A   Clear
6:55 AM 59.5 °F - 59.5 °F 100% 30.13 in 3.0 mi Calm Calm - N/A   Clear
7:15 AM 59.5 °F - 59.5 °F 100% 30.13 in 2.0 mi Calm Calm - N/A   Clear
7:35 AM 60.1 °F - 60.1 °F 100% 30.14 in 2.5 mi Calm Calm - N/A   Clear
7:55 AM 61.7 °F - 61.7 °F 100% 30.14 in 1.8 mi Calm Calm - N/A   Mist
8:35 AM 66.6 °F - 64.4 °F 93% 30.14 in 5.0 mi Calm Calm - N/A   Clear
8:55 AM 68.2 °F - 64.9 °F 89% 30.15 in 7.0 mi Calm Calm - N/A   Clear
9:15 AM 69.8 °F - 65.8 °F 87% 30.15 in 7.0 mi Calm Calm - N/A   Clear
10:15 AM 77.0 °F - 67.6 °F 73% 30.14 in 10.0 mi SSE 4.6 mph - N/A   Clear
11:35 AM 82.0 °F 84.3 °F 66.6 °F 59% 30.12 in 10.0 mi SW 8.1 mph - N/A   Clear
12:35 PM 84.0 °F 86.8 °F 67.1 °F 57% 30.10 in 10.0 mi WSW 3.5 mph - N/A   Scattered Clouds
12:55 PM 85.8 °F 87.6 °F 65.3 °F 50% 30.09 in 10.0 mi South 9.2 mph - N/A   Scattered Clouds
1:15 PM 83.7 °F 85.8 °F 65.8 °F 55% 30.09 in 10.0 mi SSW 4.6 mph - N/A   Mostly Cloudy
1:35 PM 85.3 °F 87.4 °F 65.8 °F 52% 30.07 in 10.0 mi South 8.1 mph - N/A   Mostly Cloudy
2:15 PM 86.2 °F 88.2 °F 65.3 °F 50% 30.04 in 10.0 mi South 9.2 mph - N/A   Scattered Clouds
2:35 PM 86.2 °F 87.6 °F 64.4 °F 48% 30.03 in 10.0 mi South 6.9 mph - N/A   Scattered Clouds
2:55 PM 86.9 °F 88.3 °F 64.6 °F 47% 30.03 in 10.0 mi SSW 9.2 mph - N/A   Scattered Clouds
3:15 PM 87.6 °F 89.1 °F 64.8 °F 46% 30.02 in 10.0 mi South 9.2 mph - N/A   Scattered Clouds
3:35 PM 87.8 °F 89.1 °F 63.9 °F 45% 30.01 in 10.0 mi SSW 5.8 mph - N/A   Scattered Clouds
4:55 PM 86.9 °F 87.8 °F 63.5 °F 45% 29.99 in 10.0 mi SSW 5.8 mph - N/A   Clear
5:55 PM 84.9 °F 86.8 °F 65.3 °F 52% 29.98 in 10.0 mi Calm Calm - N/A   Clear
6:15 PM 83.5 °F 85.7 °F 66.4 °F 56% 29.98 in 10.0 mi Calm Calm - N/A   Clear
6:35 PM 79.7 °F - 68.2 °F 68% 29.99 in 10.0 mi Calm Calm - N/A   Clear
6:55 PM 76.3 °F - 69.1 °F 78% 29.99 in 10.0 mi Calm Calm - N/A   Clear
7:15 PM 73.4 °F - 69.1 °F 86% 29.99 in 10.0 mi Calm Calm - N/A   Clear
8:35 PM 70.2 °F - 68.9 °F 96% 30.00 in 10.0 mi Calm Calm - N/A   Clear
8:55 PM 69.8 °F - 68.7 °F 96% 30.00 in 10.0 mi Calm Calm - N/A   Clear
9:15 PM 69.4 °F - 68.5 °F 97% 30.01 in 10.0 mi Calm Calm - N/A   Clear
9:35 PM 68.9 °F - 68.0 °F 97% 30.02 in 10.0 mi Calm Calm - N/A   Clear
9:55 PM 68.4 °F - 67.6 °F 98% 30.02 in 10.0 mi Calm Calm - N/A   Clear
10:35 PM 68.0 °F - 67.3 °F 98% 30.02 in 10.0 mi Calm Calm - N/A   Clear
10:55 PM 67.5 °F - 67.1 °F 99% 30.02 in 10.0 mi Calm Calm - N/A   Clear
11:15 PM 66.6 °F - 66.4 °F 99% 30.03 in 5.0 mi Calm Calm - N/A   Clear
11:35 PM 66.4 °F - 66.2 °F 99% 30.03 in 7.0 mi Calm Calm - N/A   Clear
11:55 PM 66.6 °F - 66.4 °F 99% 30.02 in 7.0 mi Calm Calm - N/A   Clear